Weather History for EGLL - April, 2013

Change the Weather History Date:

Monday, April 29, 2013

  Actual Average Record
Temperature  
Mean Temperature 51 °F -  
Max Temperature 58 °F 62 °F 69 °F (2007)
Min Temperature 44 °F 47 °F 41 °F (2008)
Degree Days  
Heating Degree Days 14    
Growing Degree Days 1 (Base 50)    
Moisture  
Dew Point 36 °F    
Average Humidity 59    
Maximum Humidity 87    
Minimum Humidity 28    
Precipitation  
Precipitation 0.00 in - - ()
Sea Level Pressure  
Sea Level Pressure 30.02 in    
Wind  
Wind Speed 12 mph ()    
Max Wind Speed 18 mph    
Max Gust Speed -    
Visibility 7.9 miles    
Events Rain    
Averages and records for this station are not official NWS values.
T = Trace of Precipitation, MM = Missing Value Source: Averaged Metar Reports

Daily Weather History Graph

Daily Weather History Graph

Search for Another Location

Airport or City:

Trip Planner

Search our weather history database for the weather conditions in past years. The results will help you decide how hot, cold, wet, or windy it might be!

Date:

Astronomy

Apr. 29, 2013 Rise Set
Actual Time 5:37 AM BST 8:21 PM BST
Civil Twilight 4:59 AM BST 8:59 PM BST
Nautical Twilight 4:11 AM BST 9:48 PM BST
Astronomical Twilight 3:12 AM BST 10:49 PM BST
Moon No Moon Rise 8:29 AM BST (4/29)
Length of Visible Light 16h 00m
Length of Day
14h 44m
Waning Gibbous, 82% of the Moon is Illuminated
Apr 29
Waning Gibbous
May 2
Last Quarter
May 10
New
May 18
First Quarter
May 25
Full

Hourly Weather History & Observations

Time (BST) Temp. Windchill Dew Point Humidity Pressure Visibility Wind Dir Wind Speed Gust Speed Precip Events Conditions
12:20 AM 46.4 °F 40.1 °F 41.0 °F 81% 29.92 in 6.2 mi SW 15.0 mph - N/A   Scattered Clouds
12:50 AM 47 °F - 41 °F 74% 29.92 in 19 mi SW 18.4 mph - - Rain Rain
12:50 AM 46.4 °F 40.1 °F 41.0 °F 81% 29.92 in 6.2 mi WSW 15.0 mph - N/A Rain Light Rain Showers
1:20 AM 46.4 °F 40.1 °F 41.0 °F 81% 29.92 in 6.2 mi WSW 15.0 mph - N/A   Light Drizzle
1:50 AM 46.4 °F 40.7 °F 42.8 °F 87% 29.89 in 6.2 mi WSW 12.7 mph - N/A   Partly Cloudy
2:20 AM 46.4 °F 41.1 °F 42.8 °F 87% 29.89 in 6.2 mi WSW 11.5 mph - N/A   Partly Cloudy
2:50 AM 46.4 °F 41.5 °F 42.8 °F 87% 29.89 in 6.2 mi WSW 10.4 mph - N/A   Scattered Clouds
3:20 AM 46.4 °F 41.1 °F 42.8 °F 87% 29.89 in 6.2 mi WSW 11.5 mph - N/A   Scattered Clouds
3:50 AM 46 °F - 43 °F 84% 29.91 in 14 mi WSW 12.7 mph - -   Mostly Cloudy
3:50 AM 46.4 °F 41.5 °F 42.8 °F 87% 29.89 in 6.2 mi WSW 10.4 mph - N/A   Scattered Clouds
4:20 AM 46.4 °F 41.1 °F 42.8 °F 87% 29.89 in 6.2 mi West 11.5 mph - N/A   Scattered Clouds
4:50 AM 46.4 °F 41.1 °F 42.8 °F 87% 29.89 in 6.2 mi West 11.5 mph - N/A   Partly Cloudy
5:20 AM 46.4 °F 40.7 °F 42.8 °F 87% 29.92 in 6.2 mi West 12.7 mph - N/A   Partly Cloudy
5:50 AM 46.4 °F 40.7 °F 41.0 °F 81% 29.92 in 6.2 mi West 12.7 mph - N/A   Partly Cloudy
6:20 AM 46.4 °F 40.7 °F 39.2 °F 76% 29.95 in 6.2 mi WNW 12.7 mph - N/A   Partly Cloudy
6:50 AM 46 °F - 36 °F 58% 29.96 in 17 mi West 11.5 mph - -  
6:50 AM 44.6 °F 38.8 °F 35.6 °F 71% 29.95 in - West 11.5 mph - N/A   Clear
7:20 AM 46.4 °F 41.1 °F 35.6 °F 66% 29.95 in - West 11.5 mph - N/A   Clear
7:50 AM 46.4 °F 41.5 °F 35.6 °F 66% 29.98 in 6.2 mi West 10.4 mph - N/A   Partly Cloudy
8:20 AM 46.4 °F 40.1 °F 35.6 °F 66% 29.98 in 6.2 mi West 15.0 mph - N/A   Partly Cloudy
8:50 AM 48.2 °F - 35.6 °F 62% 29.98 in 6.2 mi WNW 13.8 mph - N/A   Partly Cloudy
9:20 AM 48.2 °F - 35.6 °F 62% 30.01 in 6.2 mi WNW 11.5 mph - N/A   Partly Cloudy
9:50 AM 50 °F - 33 °F 41% 30.01 in 17 mi West 15.0 mph - -   Scattered Clouds
9:50 AM 50.0 °F - 35.6 °F 58% 30.01 in 6.2 mi West 15.0 mph - N/A   Partly Cloudy
10:20 AM 51.8 °F - 35.6 °F 54% 30.01 in 6.2 mi West 15.0 mph - N/A   Partly Cloudy
10:50 AM 51.8 °F - 35.6 °F 54% 30.04 in 6.2 mi West 13.8 mph - N/A   Scattered Clouds
11:20 AM 53.6 °F - 35.6 °F 51% 30.04 in 6.2 mi West 16.1 mph - N/A   Scattered Clouds
11:50 AM 53.6 °F - 35.6 °F 51% 30.04 in 6.2 mi West 13.8 mph - N/A   Scattered Clouds
12:20 PM 53.6 °F - 35.6 °F 51% 30.04 in 6.2 mi WNW 12.7 mph - N/A   Scattered Clouds
12:50 PM 54 °F - 34 °F 34% 30.06 in 22 mi West 12.7 mph - -   Mostly Cloudy
12:50 PM 53.6 °F - 33.8 °F 47% 30.06 in 6.2 mi West 15.0 mph - N/A   Scattered Clouds
1:20 PM 53.6 °F - 35.6 °F 51% 30.06 in 6.2 mi West 13.8 mph - N/A   Scattered Clouds
1:50 PM 53.6 °F - 33.8 °F 47% 30.06 in 6.2 mi WNW 11.5 mph - N/A   Scattered Clouds
2:20 PM 57.2 °F - 35.6 °F 44% 30.06 in 6.2 mi West 13.8 mph - N/A   Scattered Clouds
2:50 PM 55.4 °F - 33.8 °F 44% 30.06 in - West 16.1 mph - N/A   Clear
3:20 PM 55.4 °F - 33.8 °F 44% 30.06 in - West 12.7 mph - N/A   Clear
3:50 PM 56 °F - 32 °F 28% 30.08 in 22 mi West 15.0 mph - -   Mostly Cloudy
3:50 PM 55.4 °F - 33.8 °F 44% 30.06 in - West 15.0 mph - N/A   Clear
4:20 PM 55.4 °F - 32.0 °F 41% 30.06 in - WNW 11.5 mph - N/A   Clear
4:50 PM 57.2 °F - 33.8 °F 41% 30.06 in - WNW 10.4 mph - N/A   Clear
5:20 PM 55.4 °F - 32.0 °F 41% 30.06 in - West 12.7 mph - N/A   Clear
5:50 PM 57.2 °F - 32.0 °F 38% 30.06 in - West 11.5 mph - N/A   Clear
6:20 PM 57.2 °F - 33.8 °F 41% 30.09 in - WNW 11.5 mph - N/A   Clear
6:50 PM 56 °F - 33 °F 30% 30.10 in 25 mi West 12.7 mph - -   Mostly Cloudy
6:50 PM 55.4 °F - 33.8 °F 44% 30.09 in - West 12.7 mph - N/A   Clear
7:20 PM 55.4 °F - 32.0 °F 41% 30.09 in - WNW 10.4 mph - N/A   Clear
7:50 PM 55.4 °F - 30.2 °F 38% 30.09 in - WNW 9.2 mph - N/A   Clear
8:20 PM 51.8 °F - 32.0 °F 47% 30.12 in - WNW 8.1 mph - N/A   Clear
8:50 PM 51.8 °F - 32.0 °F 47% 30.12 in - WNW 4.6 mph - N/A   Clear
9:20 PM 50.0 °F - 32.0 °F 50% 30.15 in - WNW 4.6 mph - N/A   Clear
9:50 PM 50 °F - 33 °F 40% 30.16 in 19 mi West 3.5 mph - -  
9:50 PM 51.8 °F - 32.0 °F 47% 30.15 in - West 5.8 mph - N/A   Clear
10:20 PM 50.0 °F - 32.0 °F 50% 30.15 in - West 6.9 mph - N/A   Clear
10:50 PM 46.4 °F 41.9 °F 33.8 °F 62% 30.15 in - West 9.2 mph - N/A   Clear
11:20 PM 44.6 °F 40.7 °F 33.8 °F 66% 30.18 in - WNW 6.9 mph - N/A   Clear
11:50 PM 44.6 °F 40.2 °F 33.8 °F 66% 30.18 in - West 8.1 mph - N/A   Clear